Torna al catalogo

SL-8 R/B

AttivoPO
NORAD 7477·ROCKET BODY·🇷🇺 Russia

Lanciato Oct 18, 1974 da Plesetsk Cosmodrome

Loading…

Prossimi Passaggi (prossime 24 ore)

TLE

AggiornatoSource: Space-Track

Epoca: Sep 14, 2026, 10:36 UTC

1 07477U 74079B   26257.44220295 -.00000048  00000-0 -67044-4 0  9991
2 07477  82.9399  66.2193 0034716  59.3760 329.4711 13.74279339602008

Traccia SL-8 R/B in tempo reale con AllMySat

Download on the App Store